Location: Bas-Clignon
(44.2000°N, 6.6333°E)
Time: 13:01:08
(UTC+00:00)

Cosmos 1140 Rocket - Pass Details

Date: 03 February 2023
Orbit: 744 x 766 km, 74.1° (Epoch: 20 March)

Event Time Altitude Azimuth Distance (km) Brightness Sun altitude
Rises 17:21:20 0° 211° (SSW) 3,198 7.5 -6.9°
Reaches altitude 10° 17:23:44 10° 215° (SW) 2,274 6.8 -7.3°
Maximum altitude 17:28:48 56° 294° (WNW) 889 4.2 -8.2°
Drops below altitude 10° 17:33:53 10° 13° (NNE) 2,276 5.7 -9.0°
Sets 17:36:17 0° 18° (NNE) 3,201 6.4 -9.5°
